TimeEST,TemperatureF,Dew PointF,Humidity,Sea Level PressureIn,VisibilityMPH,Wind Direction,Wind SpeedMPH,Gust SpeedMPH,PrecipitationIn,Events,Conditions,WindDirDegrees,DateUTC
12:14 AM,33.8,32.2,94,29.54,4.0,East,15.0,19.6,N/A,Snow,Light Snow,80,2013-02-27 05:14:00
12:35 AM,34.0,32.2,93,29.53,4.0,East,10.4,20.7,N/A,,Overcast,80,2013-02-27 05:35:00
12:54 AM,34.0,32.2,93,29.53,4.0,East,11.5,17.3,N/A,Snow,Light Snow,90,2013-02-27 05:54:00
1:14 AM,34.0,32.2,93,29.52,4.0,East,12.7,17.3,N/A,Snow,Light Snow,90,2013-02-27 06:14:00
1:35 AM,33.8,32.0,93,29.52,2.5,East,8.1,20.7,N/A,Snow,Light Snow,90,2013-02-27 06:35:00
1:54 AM,33.8,32.0,93,29.52,3.0,East,8.1,-,N/A,Snow,Light Snow,80,2013-02-27 06:54:00
2:14 AM,33.8,32.2,94,29.51,7.0,East,9.2,-,N/A,,Overcast,80,2013-02-27 07:14:00
2:34 AM,34.0,32.4,94,29.51,5.0,East,9.2,-,N/A,Snow,Light Snow,100,2013-02-27 07:34:00
2:54 AM,33.8,32.2,94,29.51,3.0,East,6.9,-,N/A,Snow,Light Snow,90,2013-02-27 07:54:00
3:15 AM,33.8,32.0,93,29.49,2.5,East,5.8,-,N/A,Snow,Light Snow,90,2013-02-27 08:15:00
3:34 AM,33.8,32.0,93,29.48,2.5,East,6.9,-,N/A,Snow,Light Snow,80,2013-02-27 08:34:00
3:54 AM,33.6,32.0,94,29.48,2.0,East,6.9,-,N/A,Snow,Light Snow,80,2013-02-27 08:54:00
4:15 AM,33.8,32.0,93,29.48,2.5,East,8.1,-,N/A,Snow,Light Snow,80,2013-02-27 09:15:00
4:34 AM,33.8,32.2,94,29.48,4.0,East,6.9,-,N/A,Snow,Light Snow,80,2013-02-27 09:34:00
4:54 AM,33.8,32.4,94,29.48,4.0,East,6.9,-,N/A,Snow,Light Snow,80,2013-02-27 09:54:00
5:15 AM,34.0,32.4,94,29.48,5.0,East,5.8,-,N/A,Rain,Rain,80,2013-02-27 10:15:00
5:34 AM,34.0,32.5,94,29.48,5.0,East,6.9,-,N/A,,Light Drizzle,80,2013-02-27 10:34:00
5:54 AM,34.2,32.9,95,29.48,3.0,ENE,6.9,-,N/A,,Light Drizzle,70,2013-02-27 10:54:00
6:15 AM,34.2,32.9,95,29.48,3.0,East,5.8,-,N/A,,Overcast,80,2013-02-27 11:15:00
6:34 AM,34.2,32.9,95,29.49,2.5,ENE,5.8,-,N/A,,Overcast,70,2013-02-27 11:34:00
6:54 AM,34.2,32.9,95,29.48,1.5,ENE,4.6,-,N/A,,Overcast,70,2013-02-27 11:54:00
7:14 AM,34.2,32.9,95,29.49,0.5,Calm,Calm,-,N/A,Fog,Fog,0,2013-02-27 12:14:00
7:34 AM,34.3,32.9,94,29.49,0.2,Calm,Calm,-,N/A,Fog,Fog,0,2013-02-27 12:34:00
7:55 AM,34.7,33.1,94,29.50,0.2,Calm,Calm,-,N/A,Fog,Fog,0,2013-02-27 12:55:00
8:14 AM,34.9,33.6,95,29.51,0.2,Calm,Calm,-,N/A,Fog,Fog,0,2013-02-27 13:14:00
8:35 AM,35.2,34.0,95,29.52,0.2,South,4.6,-,N/A,Fog,Fog,190,2013-02-27 13:35:00
8:54 AM,35.1,33.8,95,29.54,1.0,SSW,8.1,-,N/A,,Overcast,210,2013-02-27 13:54:00
9:14 AM,35.1,33.8,95,29.54,4.0,SSW,6.9,-,N/A,,Overcast,210,2013-02-27 14:14:00
9:34 AM,35.2,34.0,95,29.53,4.0,SW,9.2,-,N/A,,Overcast,220,2013-02-27 14:34:00
10:15 AM,35.6,34.0,94,29.54,5.0,SSW,11.5,-,N/A,,Overcast,210,2013-02-27 15:15:00
10:34 AM,35.6,33.8,93,29.54,7.0,SSW,10.4,-,N/A,,Overcast,210,2013-02-27 15:34:00
10:54 AM,36.0,33.8,92,29.54,7.0,SW,8.1,-,N/A,,Overcast,220,2013-02-27 15:54:00
11:14 AM,36.5,33.8,90,29.54,10.0,SW,9.2,-,N/A,,Overcast,220,2013-02-27 16:14:00
11:34 AM,36.5,33.8,90,29.55,10.0,SW,8.1,-,N/A,,Overcast,220,2013-02-27 16:34:00
11:55 AM,36.5,33.4,89,29.55,10.0,SW,6.9,-,N/A,,Overcast,220,2013-02-27 16:55:00
12:14 PM,36.5,33.4,89,29.56,10.0,SSW,8.1,-,N/A,,Overcast,210,2013-02-27 17:14:00
12:34 PM,36.5,33.3,88,29.56,10.0,SSW,6.9,-,N/A,,Overcast,210,2013-02-27 17:34:00
12:55 PM,36.5,32.9,87,29.55,10.0,SSW,6.9,-,N/A,,Overcast,210,2013-02-27 17:55:00
1:14 PM,36.5,32.9,87,29.55,10.0,SW,10.4,-,N/A,,Overcast,220,2013-02-27 18:14:00
1:34 PM,36.5,32.5,86,29.55,10.0,SW,10.4,-,N/A,,Overcast,220,2013-02-27 18:34:00
1:55 PM,36.5,32.2,84,29.55,10.0,SW,8.1,-,N/A,,Overcast,220,2013-02-27 18:55:00
2:14 PM,36.3,32.2,85,29.55,10.0,SW,6.9,-,N/A,,Overcast,220,2013-02-27 19:14:00
2:34 PM,36.1,32.2,86,29.55,10.0,SW,10.4,-,N/A,,Overcast,220,2013-02-27 19:34:00
3:14 PM,36.5,32.0,84,29.56,10.0,SSW,6.9,-,N/A,,Overcast,210,2013-02-27 20:14:00
3:35 PM,36.5,32.0,84,29.56,10.0,SSW,8.1,-,N/A,,Overcast,210,2013-02-27 20:35:00
3:54 PM,36.1,32.0,85,29.56,10.0,SW,10.4,-,N/A,,Overcast,220,2013-02-27 20:54:00
4:14 PM,36.0,32.0,86,29.57,10.0,SSW,6.9,-,N/A,,Overcast,210,2013-02-27 21:14:00
4:35 PM,36.0,32.0,86,29.57,10.0,SSW,5.8,-,N/A,,Overcast,210,2013-02-27 21:35:00
4:54 PM,35.6,32.0,87,29.57,10.0,SW,8.1,-,N/A,,Overcast,220,2013-02-27 21:54:00
5:14 PM,35.4,32.0,87,29.57,7.0,SSW,5.8,-,N/A,,Overcast,210,2013-02-27 22:14:00
5:35 PM,34.9,32.0,89,29.58,5.0,SSW,5.8,-,N/A,,Overcast,210,2013-02-27 22:35:00
5:54 PM,34.7,32.0,90,29.58,7.0,SSW,5.8,-,N/A,,Overcast,200,2013-02-27 22:54:00
6:14 PM,34.7,32.0,90,29.59,10.0,SSW,8.1,-,N/A,,Overcast,210,2013-02-27 23:14:00
6:35 PM,34.7,32.0,90,29.59,10.0,SSW,9.2,-,N/A,,Overcast,200,2013-02-27 23:35:00
6:54 PM,34.3,32.0,91,29.59,7.0,SSW,8.1,-,N/A,,Overcast,210,2013-02-27 23:54:00
7:14 PM,34.2,32.0,92,29.60,10.0,SSW,6.9,-,N/A,,Overcast,210,2013-02-28 00:14:00
7:35 PM,34.2,32.0,92,29.59,10.0,SSW,6.9,-,N/A,,Overcast,210,2013-02-28 00:35:00
7:54 PM,34.2,32.0,92,29.59,10.0,SSW,5.8,-,N/A,,Overcast,210,2013-02-28 00:54:00
8:34 PM,34.2,32.0,92,29.59,10.0,SW,4.6,-,N/A,,Overcast,220,2013-02-28 01:34:00
8:54 PM,34.2,32.0,92,29.59,10.0,SSW,6.9,-,N/A,,Overcast,210,2013-02-28 01:54:00
9:14 PM,34.2,32.0,92,29.59,10.0,SW,6.9,-,N/A,,Overcast,220,2013-02-28 02:14:00
9:34 PM,34.2,32.0,92,29.58,10.0,SW,5.8,-,N/A,,Overcast,220,2013-02-28 02:34:00
9:55 PM,34.2,32.0,92,29.59,10.0,SW,4.6,-,N/A,,Overcast,220,2013-02-28 02:55:00
10:14 PM,34.2,32.0,92,29.58,10.0,SSW,4.6,-,N/A,,Overcast,210,2013-02-28 03:14:00
10:34 PM,34.2,32.0,92,29.58,7.0,SW,3.5,-,N/A,,Overcast,220,2013-02-28 03:34:00
10:55 PM,34.2,32.0,92,29.58,5.0,SW,3.5,-,N/A,,Overcast,220,2013-02-28 03:55:00
10:59 PM,33.8,32.0,93,29.58,5.0,SW,3.5,-,N/A,,Overcast,220,2013-02-28 03:59:00
11:03 PM,34.0,32.0,92,29.58,4.0,SW,4.6,-,N/A,,Overcast,220,2013-02-28 04:03:00
11:59 PM,33.8,32.0,93,29.57,3.0,SSW,5.8,-,N/A,,Overcast,210,2013-02-28 04:59:00